Retour au catalogue

COSMOS 1867 COOLANT

ActifLEO
NORAD 39646·DEBRIS·🇷🇺 Russia

Lancé Jul 10, 1987 depuis Baikonur Cosmodrome

Loading…

Prochains Passages (prochaines 24 heures)

TLE

FraisSource: Space-Track

Époque: Sep 14, 2026, 00:53 UTC

1 39646U 87060P   26257.03719871  .00000133  00000-0  83669-4 0  9990
2 39646  65.0083 121.9517 0019138 278.2436  81.6479 14.33856643650360

Suivez COSMOS 1867 COOLANT en temps réel avec AllMySat

Download on the App Store